When you browse on this site, cookies collect data to enhance your experience and personalize the content and advertising you see.
Visit our Privacy Policy to learn more. By continuing to use the site, you agree to this use of cookies and data.
  • In Deutschland
  • Länderverzeichnis
  • Für 7 Tage
  • Wassertemperatur
  • Satellitenkarten
  • Wetterkarte
  • Widgets
  • user-avatar
    Anmelden

    Stündliche Wetter Majdan

    Heute, 23 Juli, Dienstag

    Zeit Temperatur Niederschläge Wind Luftdruck Luftfeuchtigkeit
    00:00 +19°C° 0 mm 1 m/S 756 mmHg 76%
    01:00 +18°C° 0 mm 1 m/S 756 mmHg 80%
    02:00 +16°C° 0 mm 1 m/S 756 mmHg 80%
    03:00 +16°C° 0 mm 1 m/S 756 mmHg 80%
    04:00 +16°C° 0 mm 1 m/S 755 mmHg 79%
    05:00 +18°C° 0 mm 1 m/S 755 mmHg 76%
    06:00 +17°C° 0 mm 2 m/S 755 mmHg 73%
    07:00 +18°C° 0 mm 2 m/S 755 mmHg 71%
    08:00 +18°C° 0 mm 2 m/S 755 mmHg 71%
    09:00 +18°C° 0 mm 3 m/S 755 mmHg 71%
    10:00 +18°C° 0 mm 3 m/S 755 mmHg 71%
    11:00 +18°C° 0 mm 3 m/S 755 mmHg 71%
    12:00 +19°C° 0 mm 3 m/S 755 mmHg 72%
    13:00 +19°C° 0 mm 3 m/S 755 mmHg 72%
    14:00 +20°C° 0 mm 3 m/S 755 mmHg 71%
    15:00 +20°C° 0 mm 4 m/S 755 mmHg 70%
    16:00 +21°C° 0 mm 4 m/S 755 mmHg 68%
    17:00 +20°C° 0 mm 3 m/S 754 mmHg 73%
    18:00 +19°C° 0 mm 3 m/S 754 mmHg 77%
    19:00 +18°C° 0 mm 3 m/S 754 mmHg 82%
    20:00 +18°C° 0 mm 2 m/S 754 mmHg 85%
    21:00 +17°C° 0 mm 2 m/S 754 mmHg 89%
    22:00 +16°C° 0 mm 2 m/S 755 mmHg 92%
    23:00 +16°C° 0 mm 2 m/S 755 mmHg 93%

    Morgen, 24 Juli, Mittwoch

    Zeit Temperatur Niederschläge Wind Luftdruck Luftfeuchtigkeit
    00:00 +15°C° 0 mm 1 m/S 755 mmHg 93%
    01:00 +15°C° 0 mm 1 m/S 754 mmHg 94%
    02:00 +15°C° 0 mm 1 m/S 754 mmHg 93%
    03:00 +15°C° 0 mm 1 m/S 754 mmHg 93%
    04:00 +15°C° 0 mm 1 m/S 754 mmHg 92%
    05:00 +16°C° 0 mm 1 m/S 754 mmHg 87%
    06:00 +19°C° 0 mm 1 m/S 754 mmHg 81%
    07:00 +20°C° 0 mm 1 m/S 755 mmHg 76%
    08:00 +22°C° 0 mm 1 m/S 755 mmHg 70%
    09:00 +23°C° 0 mm 2 m/S 755 mmHg 65%
    10:00 +24°C° 0 mm 2 m/S 755 mmHg 59%
    11:00 +25°C° 0 mm 2 m/S 755 mmHg 54%
    12:00 +26°C° 0 mm 2 m/S 754 mmHg 50%
    13:00 +27°C° 0 mm 2 m/S 754 mmHg 45%
    14:00 +27°C° 0 mm 2 m/S 754 mmHg 45%
    15:00 +27°C° 0 mm 2 m/S 754 mmHg 45%
    16:00 +27°C° 0 mm 3 m/S 754 mmHg 44%
    17:00 +26°C° 0 mm 2 m/S 754 mmHg 50%
    18:00 +25°C° 0 mm 2 m/S 754 mmHg 57%
    19:00 +23°C° 0 mm 1 m/S 754 mmHg 63%
    20:00 +22°C° 0 mm 1 m/S 754 mmHg 66%
    21:00 +21°C° 0 mm 1 m/S 755 mmHg 69%
    22:00 +20°C° 0 mm 1 m/S 755 mmHg 73%
    23:00 +20°C° 0 mm 1 m/S 755 mmHg 76%

    übermorgen, 25 Juli, Donnerstag

    Zeit Temperatur Niederschläge Wind Luftdruck Luftfeuchtigkeit
    00:00 +17°C° 0 mm 0 m/S 755 mmHg 79%
    01:00 +17°C° 0 mm 0 m/S 755 mmHg 83%
    02:00 +17°C° 0 mm 0 m/S 755 mmHg 84%
    03:00 +16°C° 0 mm 0 m/S 755 mmHg 85%
    04:00 +16°C° 0 mm 0 m/S 755 mmHg 87%
    05:00 +20°C° 0 mm 1 m/S 755 mmHg 82%
    06:00 +21°C° 0 mm 1 m/S 755 mmHg 76%
    07:00 +23°C° 0 mm 1 m/S 755 mmHg 71%
    08:00 +24°C° 0.1 mm 1 m/S 755 mmHg 66%
    09:00 +26°C° 0.1 mm 1 m/S 755 mmHg 61%
    10:00 +27°C° 0.1 mm 2 m/S 755 mmHg 55%
    11:00 +27°C° 0.1 mm 2 m/S 755 mmHg 53%
    12:00 +28°C° 0.1 mm 2 m/S 754 mmHg 50%
    13:00 +28°C° 0.1 mm 2 m/S 754 mmHg 48%
    14:00 +28°C° 0 mm 3 m/S 754 mmHg 47%
    15:00 +28°C° 0 mm 3 m/S 754 mmHg 47%
    16:00 +28°C° 0 mm 4 m/S 754 mmHg 46%
    17:00 +27°C° 0 mm 4 m/S 753 mmHg 54%
    18:00 +25°C° 0 mm 4 m/S 753 mmHg 63%
    19:00 +23°C° 0 mm 4 m/S 753 mmHg 71%
    20:00 +21°C° 0 mm 3 m/S 754 mmHg 73%
    21:00 +20°C° 0 mm 3 m/S 754 mmHg 76%
    22:00 +19°C° 0 mm 3 m/S 754 mmHg 79%
    23:00 +18°C° 0 mm 3 m/S 754 mmHg 83%

    26 Juli, Freitag

    Zeit Temperatur Niederschläge Wind Luftdruck Luftfeuchtigkeit
    00:00 +17°C° 0 mm 3 m/S 754 mmHg 87%
    01:00 +16°C° 0 mm 2 m/S 754 mmHg 90%
    02:00 +16°C° 0 mm 2 m/S 753 mmHg 91%
    03:00 +16°C° 0 mm 2 m/S 753 mmHg 92%
    04:00 +16°C° 0 mm 2 m/S 753 mmHg 93%
    05:00 +17°C° 0 mm 3 m/S 753 mmHg 87%
    06:00 +18°C° 0 mm 3 m/S 753 mmHg 81%
    07:00 +19°C° 0 mm 4 m/S 753 mmHg 75%
    08:00 +20°C° 0.1 mm 4 m/S 753 mmHg 71%
    09:00 +21°C° 0.1 mm 4 m/S 753 mmHg 67%
    10:00 +22°C° 0.1 mm 5 m/S 753 mmHg 63%
    11:00 +23°C° 0 mm 5 m/S 753 mmHg 62%
    12:00 +23°C° 0 mm 5 m/S 753 mmHg 60%
    13:00 +25°C° 0 mm 5 m/S 753 mmHg 59%
    14:00 +25°C° 0 mm 5 m/S 753 mmHg 60%
    15:00 +25°C° 0 mm 5 m/S 752 mmHg 60%
    16:00 +25°C° 0 mm 5 m/S 752 mmHg 61%
    17:00 +23°C° 0 mm 4 m/S 752 mmHg 67%
    18:00 +22°C° 0 mm 4 m/S 752 mmHg 73%
    19:00 +21°C° 0 mm 3 m/S 753 mmHg 78%
    20:00 +20°C° 0 mm 3 m/S 753 mmHg 82%
    21:00 +19°C° 0 mm 3 m/S 753 mmHg 86%
    22:00 +18°C° 0 mm 3 m/S 753 mmHg 90%
    23:00 +18°C° 0 mm 3 m/S 753 mmHg 89%

    27 Juli, Samstag

    Zeit Temperatur Niederschläge Wind Luftdruck Luftfeuchtigkeit
    00:00 +18°C° 0 mm 3 m/S 753 mmHg 89%
    01:00 +18°C° 0 mm 3 m/S 753 mmHg 89%
    02:00 +18°C° 0 mm 3 m/S 753 mmHg 91%
    03:00 +18°C° 0 mm 3 m/S 753 mmHg 93%
    04:00 +17°C° 0 mm 3 m/S 753 mmHg 95%
    05:00 +19°C° 0 mm 3 m/S 753 mmHg 89%
    06:00 +20°C° 0 mm 3 m/S 753 mmHg 84%
    07:00 +22°C° 0 mm 4 m/S 753 mmHg 79%
    08:00 +23°C° 0 mm 4 m/S 753 mmHg 71%
    09:00 +26°C° 0 mm 4 m/S 753 mmHg 63%
    10:00 +28°C° 0 mm 5 m/S 753 mmHg 55%
    11:00 +28°C° 0 mm 5 m/S 753 mmHg 53%
    12:00 +29°C° 0 mm 5 m/S 753 mmHg 51%
    13:00 +30°C° 0 mm 5 m/S 753 mmHg 49%
    14:00 +30°C° 0 mm 5 m/S 753 mmHg 49%
    15:00 +30°C° 0 mm 5 m/S 752 mmHg 49%
    16:00 +30°C° 0 mm 5 m/S 752 mmHg 48%
    17:00 +29°C° 0 mm 4 m/S 752 mmHg 54%
    18:00 +27°C° 0 mm 3 m/S 752 mmHg 60%
    19:00 +26°C° 0 mm 3 m/S 752 mmHg 65%
    20:00 +25°C° 0 mm 3 m/S 753 mmHg 71%
    21:00 +24°C° 0 mm 2 m/S 753 mmHg 76%
    22:00 +23°C° 0 mm 2 m/S 753 mmHg 81%
    23:00 +21°C° 0 mm 2 m/S 753 mmHg 84%

    28 Juli, Sonntag

    Zeit Temperatur Niederschläge Wind Luftdruck Luftfeuchtigkeit
    00:00 +21°C° 0 mm 2 m/S 753 mmHg 86%
    01:00 +20°C° 0 mm 2 m/S 753 mmHg 89%
    02:00 +20°C° 0 mm 2 m/S 753 mmHg 90%
    03:00 +19°C° 0 mm 2 m/S 753 mmHg 90%
    04:00 +19°C° 0 mm 2 m/S 753 mmHg 91%
    05:00 +21°C° 0 mm 2 m/S 753 mmHg 85%
    06:00 +23°C° 0 mm 2 m/S 753 mmHg 78%
    07:00 +25°C° 0 mm 2 m/S 753 mmHg 72%
    08:00 +26°C° 0 mm 3 m/S 753 mmHg 65%
    09:00 +28°C° 0 mm 3 m/S 753 mmHg 57%
    10:00 +30°C° 0 mm 3 m/S 753 mmHg 50%
    11:00 +30°C° 0 mm 3 m/S 753 mmHg 49%
    12:00 +30°C° 0 mm 3 m/S 753 mmHg 49%
    13:00 +31°C° 0 mm 3 m/S 753 mmHg 48%
    14:00 +31°C° 0 mm 3 m/S 753 mmHg 47%
    15:00 +31°C° 0 mm 3 m/S 753 mmHg 46%
    16:00 +31°C° 0 mm 3 m/S 752 mmHg 46%
    17:00 +29°C° 0 mm 3 m/S 752 mmHg 51%
    18:00 +28°C° 0 mm 2 m/S 753 mmHg 57%
    19:00 +27°C° 0 mm 2 m/S 753 mmHg 62%
    20:00 +26°C° 0 mm 2 m/S 753 mmHg 66%
    21:00 +25°C° 0 mm 2 m/S 753 mmHg 69%
    22:00 +24°C° 0 mm 2 m/S 753 mmHg 73%
    23:00 +23°C° 0 mm 2 m/S 753 mmHg 76%
    Mehr zeigen